1491408000.97,27590,15.13,73362.0,-1.43,-3.07,-3.07,0,*5F
1491408002.19,27591,15.19,73364.8,-1.43,-3.07,-3.15,0,*5D
1491408003.41,27592,15.19,73364.0,-1.43,-3.03,-3.15,0,*5A
1491408004.63,27593,15.19,73362.3,-1.39,-2.99,-3.11,0,*50
1491408005.82,27594,15.19,73364.0,-1.41,-2.99,-3.15,0,*5C
1491408007.01,27595,15.13,73360.5,-1.41,-3.03,-3.19,0,*53
1491408008.2,27596,15.19,73366.3,-1.41,-3.03,-3.19,0,*50
1491408009.39,27597,15.19,73364.8,-1.41,-3.07,-3.27,0,*58
1491408010.61,27598,15.19,73364.3,-1.41,-3.19,-3.43,0,*5A
1491408011.83,27599,15.19,73362.8,-1.39,-3.15,-3.35,0,*59
1491408013.05,27600,15.13,73360.8,-1.39,-3.11,-3.35,0,*5E
1491408014.27,27601,15.19,73366.8,-1.39,-3.23,-3.39,0,*52
1491408015.46,27602,15.19,73366.5,-1.41,-3.15,-3.39,0,*5B
1491408016.68,27603,15.13,73358.8,-1.41,-3.19,-3.43,0,*5B
1491408017.9,27604,15.13,73356.3,-1.39,-3.15,-3.39,0,*52
1491408019.1,27605,15.13,73360.5,-1.41,-3.19,-3.39,0,*50
1491408020.29,27606,15.19,73362.0,-1.41,-3.15,-3.39,0,*5F
1491408021.48,27607,15.13,73360.5,-1.41,-3.07,-3.39,0,*5D
1491408022.68,27608,15.19,73364.5,-1.41,-3.03,-3.39,0,*56
1491408023.91,27609,15.13,73360.3,-1.39,-3.03,-3.47,0,*51
1491408025.15,27610,15.19,73364.8,-1.39,-3.23,-3.63,0,*5D
1491408026.39,27611,15.13,73360.3,-1.39,-3.23,-3.59,0,*55
1491408027.64,27612,15.13,73362.8,-1.39,-3.27,-3.59,0,*52
1491408028.88,27613,15.19,73362.5,-1.39,-3.27,-3.51,0,*5B
1491408030.13,27614,15.13,73358.5,-1.39,-3.27,-3.51,0,*5C
1491408031.39,27615,15.19,73360.8,-1.39,-3.47,-3.47,0,*5C
1491408032.62,27616,15.19,73364.3,-1.39,-3.27,-3.27,0,*5F
1491408033.83,27617,15.13,73362.8,-1.35,-3.23,-3.23,0,*52
1491408035.05,27618,15.13,73362.8,-1.35,-3.31,-3.31,0,*5D
1491408036.28,27619,15.13,73358.8,-1.39,-3.27,-3.35,0,*53
1491408037.5,27620,15.13,73362.5,-1.39,-3.27,-3.39,0,*55
1491408038.72,27621,15.19,73364.0,-1.39,-3.23,-3.27,0,*5F
1491408039.96,27622,15.13,73362.3,-1.39,-3.35,-3.51,0,*5A
1491408041.21,27623,15.13,73362.0,-1.39,-3.39,-3.47,0,*50
1491408042.45,27624,15.19,73362.5,-1.35,-3.35,-3.43,0,*53
1491408043.67,27625,15.13,73360.5,-1.35,-3.19,-3.31,0,*59
1491408044.89,27626,15.13,73362.0,-1.39,-3.15,-3.11,0,*58
1491408046.11,27627,15.13,73362.8,-1.39,-3.23,-3.39,0,*56
1491408047.33,27628,15.13,73360.3,-1.39,-3.27,-3.39,0,*5D
1491408048.55,27629,15.13,73362.5,-1.39,-3.15,-3.39,0,*5D
1491408049.8,27630,15.19,73364.5,-1.35,-3.35,-3.47,0,*52
1491408051.04,27631,15.19,73362.3,-1.35,-3.31,-3.59,0,*58
1491408052.31,27632,15.13,73360.5,-1.35,-3.47,-3.71,0,*50
1491408053.55,27633,15.19,73364.5,-1.35,-3.55,-3.75,0,*56
1491408054.82,27634,15.13,73362.3,-1.35,-3.55,-3.71,0,*55
1491408056.08,27635,15.19,73366.3,-1.35,-3.55,-3.67,0,*53
1491408057.34,27636,15.19,73364.3,-1.39,-3.63,-3.71,0,*5E
1491408058.61,27637,15.19,73362.0,-1.39,-3.59,-3.71,0,*56
1491408059.88,27638,15.19,73362.3,-1.39,-3.59,-3.51,0,*5B
1491408061.1,27639,15.19,73366.8,-1.39,-3.39,-3.35,0,*5E
1491408062.34,27640,15.19,73366.3,-1.39,-3.39,-3.47,0,*55
1491408063.61,27641,15.13,73362.8,-1.35,-3.55,-3.47,0,*52
1491408064.82,27642,15.13,73364.0,-1.35,-3.31,-3.23,0,*51
1491408066.04,27643,15.13,73362.3,-1.35,-3.31,-3.23,0,*50
1491408067.26,27644,15.19,73364.0,-1.35,-3.35,-3.35,0,*54
1491408068.51,27645,15.19,73366.3,-1.35,-3.35,-3.43,0,*54
1491408069.78,27646,15.13,73360.5,-1.35,-3.43,-3.59,0,*5D
1491408071.05,27647,15.13,73360.8,-1.35,-3.47,-3.59,0,*58
1491408072.29,27648,15.19,73366.0,-1.35,-3.67,-3.83,0,*52
1491408073.52,27649,15.13,73360.8,-1.35,-3.83,-3.95,0,*5E
1491408074.74,27650,15.13,73358.3,-1.35,-4.09,-4.25,0,*5F
1491408075.99,27651,15.19,73364.3,-1.39,-4.37,-4.81,0,*51
1491408077.18,27652,15.13,73362.8,-1.41,-4.53,-5.51,0,*53
1491408078.42,27653,15.13,73362.8,-1.39,-4.77,-6.73,0,*58
1491408079.67,27654,15.13,73362.5,-1.39,-5.47,-8.11,0,*57
1491408080.89,27655,15.13,73362.0,-1.39,-6.39,-8.89,0,*5D
1491408082.11,27656,15.13,73362.8,-1.41,-7.01,-9.05,0,*5E
1491408083.33,27657,15.13,73362.0,-1.41,-6.93,-8.29,0,*5A
1491408084.58,27658,15.13,73358.8,-1.39,-6.47,-7.43,0,*50
1491408085.83,27659,15.13,73360.3,-1.39,-6.09,-6.63,0,*58
1491408087.07,27660,15.13,73360.0,-1.39,-5.97,-6.27,0,*56
1491408088.29,27661,15.19,73362.8,-1.39,-5.47,-6.05,0,*5A
1491408089.51,27662,15.19,73364.5,-1.39,-5.43,-5.97,0,*55
1491408090.73,27663,15.19,73362.5,-1.41,-5.23,-6.01,0,*51
1491408091.98,27664,15.19,73364.8,-1.39,-5.31,-6.43,0,*5C
1491408093.19,27665,15.13,73358.5,-1.41,-5.73,-7.49,0,*5F
1491408094.4,27666,15.13,73362.3,-1.41,-6.27,-8.75,0,*5E
1491408095.65,27667,15.13,73362.8,-1.41,-6.93,-9.45,0,*52
1491408096.88,27668,15.13,73356.0,-1.41,-7.57,-9.93,0,*5F
1491408098.14,27669,15.19,73360.5,-1.41,-8.11,-10.75,0,*63
1491408099.39,27670,15.13,73362.0,-1.39,-8.75,-11.07,0,*62
1491408100.64,27671,15.19,73362.3,-1.41,-8.81,-10.63,0,*64
1491408101.85,27672,15.13,73358.3,-1.41,-8.37,-10.05,0,*6A
1491408103.04,27673,15.13,73360.5,-1.41,-8.37,-9.75,0,*54
1491408104.29,27674,15.13,73362.5,-1.41,-8.11,-9.37,0,*51
1491408105.49,27675,15.13,73360.3,-1.41,-8.29,-8.97,0,*50
1491408106.74,27676,15.19,73364.0,-1.43,-8.11,-7.83,0,*50
1491408107.99,27677,15.13,73358.8,-1.43,-7.49,-6.93,0,*53
1491408109.24,27678,15.13,73362.3,-1.43,-6.55,-6.27,0,*5F
1491408110.49,27679,15.13,73360.3,-1.43,-6.09,-5.77,0,*51
1491408111.71,27680,15.13,73362.0,-1.43,-5.43,-5.35,0,*5C
1491408112.98,27681,15.13,73362.5,-1.43,-5.19,-5.19,0,*5C
1491408114.25,27682,15.19,73364.5,-1.43,-4.81,-4.73,0,*52
1491408115.48,27683,15.13,73362.0,-1.43,-4.57,-4.53,0,*5A
1491408116.7,27684,15.13,73360.8,-1.43,-4.45,-4.29,0,*53
1491408117.91,27685,15.13,73362.5,-1.41,-4.33,-4.21,0,*59
1491408119.1,27686,15.13,73362.3,-1.41,-4.09,-3.95,0,*5B
1491408120.32,27687,15.13,73362.8,-1.43,-4.05,-3.79,0,*56
1491408121.54,27688,15.13,73360.5,-1.41,-3.83,-3.63,0,*59
1491408122.81,27689,15.19,73364.0,-1.43,-3.67,-3.51,0,*51
1491408124.06,27690,15.13,73362.0,-1.43,-3.51,-3.39,0,*52
1491408125.31,27691,15.13,73358.0,-1.43,-3.43,-3.31,0,*58
1491408126.58,27692,15.13,73358.0,-1.43,-3.51,-3.43,0,*5D
1491408127.78,27693,15.13,73356.5,-1.41,-3.39,-3.27,0,*52
1491408128.98,27694,15.13,73358.0,-1.41,-3.39,-3.27,0,*55
1491408130.2,27695,15.13,73360.5,-1.43,-3.39,-3.31,0,*51
1491408131.42,27696,15.13,73362.3,-1.43,-3.19,-3.19,0,*5A
1491408132.61,27697,15.13,73362.8,-1.41,-3.19,-3.19,0,*59
1491408133.83,27698,15.13,73360.5,-1.39,-3.15,-3.23,0,*5C
1491408135.05,27699,15.13,73362.0,-1.41,-3.31,-3.43,0,*52
1491408136.25,27700,15.13,73360.8,-1.41,-3.27,-3.27,0,*56
1491408137.45,27701,15.13,73362.0,-1.41,-3.15,-3.27,0,*56
1491408138.64,27702,15.13,73358.5,-1.41,-3.15,-3.15,0,*54
1491408139.84,27703,15.13,73362.3,-1.41,-3.15,-3.27,0,*54
1491408141.04,27704,15.13,73360.5,-1.41,-3.31,-3.39,0,*5A
1491408142.23,27705,15.13,73362.3,-1.41,-3.27,-3.39,0,*5C
1491408143.47,27706,15.13,73360.5,-1.41,-3.51,-3.55,0,*54
1491408144.74,27707,15.13,73358.8,-1.39,-3.59,-3.63,0,*57
1491408145.98,27708,15.13,73356.0,-1.41,-3.67,-3.67,0,*5E
1491408147.24,27709,15.13,73358.5,-1.39,-3.63,-3.63,0,*50
1491408148.47,27710,15.13,73358.0,-1.39,-3.79,-3.79,0,*58
1491408149.72,27711,15.13,73358.3,-1.39,-3.71,-3.79,0,*51
1491408150.92,27712,15.13,73360.3,-1.41,-3.79,-3.79,0,*55
1491408152.15,27713,15.13,73358.3,-1.39,-3.75,-3.87,0,*56
1491408153.38,27714,15.13,73360.5,-1.39,-3.75,-3.91,0,*56
1491408154.61,27715,15.13,73358.8,-1.39,-3.91,-4.05,0,*57
1491408155.81,27716,15.13,73356.3,-1.41,-4.05,-4.09,0,*5D
1491408157.01,27717,15.13,73362.3,-1.41,-3.95,-3.95,0,*50
1491408158.26,27718,15.19,73362.3,-1.39,-3.79,-4.01,0,*58
1491408159.49,27719,15.13,73356.0,-1.39,-3.75,-4.05,0,*51
1491408160.72,27720,15.13,73356.3,-1.39,-3.79,-4.29,0,*59
1491408161.94,27721,15.13,73360.5,-1.39,-4.05,-4.49,0,*52
1491408163.17,27722,15.13,73360.3,-1.41,-4.13,-4.69,0,*5B
1491408164.42,27723,15.13,73360.0,-1.39,-4.25,-5.03,0,*5D
1491408165.64,27724,15.13,73360.0,-1.39,-4.49,-5.43,0,*54
1491408166.87,27725,15.13,73356.3,-1.39,-4.69,-6.05,0,*56
1491408168.12,27726,15.13,73360.8,-1.39,-5.07,-6.89,0,*58
1491408169.37,27727,15.13,73360.0,-1.39,-5.39,-7.99,0,*54
1491408170.59,27728,15.13,73356.3,-1.39,-5.97,-9.67,0,*50
1491408171.79,27729,15.13,73362.3,-1.41,-6.69,-10.97,0,*6B
1491408173.08,27730,15.13,73364.0,-1.39,-7.43,-11.63,0,*6F
1491408174.33,27731,15.13,73360.8,-1.39,-7.99,-12.39,0,*65
1491408175.58,27732,15.13,73362.5,-1.41,-8.81,-12.71,0,*63
1491408176.81,27733,15.19,73366.3,-1.41,-8.97,-12.71,0,*65
1491408178.03,27734,15.13,73364.0,-1.41,-9.49,-13.43,0,*60
1491408179.28,27735,15.13,73360.3,-1.41,-9.61,-13.37,0,*68
1491408180.5,27736,15.13,73358.3,-1.41,-9.61,-12.97,0,*60
1491408181.73,27737,15.13,73358.3,-1.41,-9.75,-12.71,0,*6C
1491408182.99,27738,15.13,73360.8,-1.41,-9.37,-12.11,0,*63
1491408184.27,27739,15.13,73356.8,-1.43,-9.37,-12.07,0,*67
1491408185.55,27740,15.13,73360.0,-1.43,-9.49,-12.35,0,*61
1491408186.82,27741,15.13,73358.8,-1.43,-9.61,-12.65,0,*6F
1491408188.06,27742,15.13,73356.3,-1.43,-9.71,-12.93,0,*64
1491408189.27,27743,15.13,73360.3,-1.45,-10.01,-13.11,0,*57
1491408190.48,27744,15.13,73362.3,-1.45,-10.93,-13.23,0,*5A
1491408191.78,27745,15.13,73360.5,-1.43,-11.29,-12.71,0,*5B
1491408193.04,27746,15.13,73362.3,-1.45,-11.33,-11.89,0,*51
1491408194.28,27747,15.13,73360.3,-1.45,-10.79,-10.49,0,*52
1491408195.48,27748,15.13,73360.0,-1.45,-9.79,-9.67,0,*51
1491408196.71,27749,15.13,73358.5,-1.43,-9.05,-9.31,0,*5E
1491408197.93,27750,15.13,73356.8,-1.43,-8.55,-9.23,0,*51
1491408199.13,27751,15.13,73362.3,-1.45,-8.41,-9.27,0,*57
1491408200.35,27752,15.13,73360.8,-1.45,-8.03,-8.71,0,*50
1491408201.57,27753,15.13,73364.0,-1.45,-7.61,-8.33,0,*5C
1491408202.8,27754,15.13,73360.8,-1.43,-7.23,-8.37,0,*5F
1491408204.03,27755,15.13,73360.0,-1.43,-7.19,-8.41,0,*56
1491408205.26,27756,15.13,73360.5,-1.45,-7.19,-8.07,0,*51
1491408206.49,27757,15.13,73360.3,-1.43,-6.81,-7.49,0,*53
1491408207.71,27758,15.13,73360.5,-1.43,-6.39,-7.19,0,*5A
1491408208.92,27759,15.19,73362.5,-1.45,-6.05,-7.11,0,*5A
1491408210.12,27760,15.13,73358.5,-1.45,-6.01,-7.19,0,*5C
1491408211.35,27761,15.13,73356.3,-1.45,-5.93,-7.49,0,*50
1491408212.63,27762,15.13,73358.8,-1.43,-5.85,-7.43,0,*58
1491408213.88,27763,15.13,73360.0,-1.43,-5.97,-8.03,0,*51
1491408215.09,27764,15.13,73362.3,-1.43,-6.39,-8.63,0,*57
1491408216.29,27765,15.13,73360.8,-1.45,-6.69,-8.85,0,*5D
1491408217.52,27766,15.13,73356.5,-1.45,-6.97,-9.67,0,*52
1491408218.78,27767,15.13,73364.0,-1.43,-7.61,-10.89,0,*65
1491408220.01,27768,15.13,73360.3,-1.45,-8.41,-12.57,0,*60
1491408221.24,27769,15.13,73358.5,-1.45,-9.53,-14.33,0,*67
1491408222.45,27770,15.13,73360.0,-1.45,-10.49,-15.63,0,*58
1491408223.66,27771,15.13,73360.8,-1.45,-11.01,-15.99,0,*51
1491408224.9,27772,15.13,73358.3,-1.45,-11.59,-15.99,0,*5F
1491408226.16,27773,15.13,73360.5,-1.45,-11.77,-15.35,0,*54
1491408227.41,27774,15.13,73362.8,-1.45,-10.93,-12.75,0,*5B
1491408228.64,27775,15.13,73356.8,-1.45,-10.31,-12.57,0,*52
1491408229.86,27776,15.13,73362.3,-1.45,-10.35,-12.89,0,*56
1491408231.14,27777,15.13,73360.8,-1.47,-10.71,-13.87,0,*5A
1491408232.43,27778,15.13,73360.3,-1.47,-11.63,-15.01,0,*5F
1491408233.7,27779,15.13,73360.5,-1.47,-12.21,-14.51,0,*5F
1491408234.95,27780,15.13,73362.3,-1.47,-11.81,-13.47,0,*50
1491408236.16,27781,15.13,73360.0,-1.45,-11.15,-12.39,0,*56
1491408237.42,27782,15.13,73362.0,-1.49,-10.35,-10.71,0,*54
1491408238.64,27783,15.13,73358.8,-1.47,-9.67,-9.89,0,*5B
1491408239.89,27784,15.13,73358.8,-1.47,-8.75,-9.57,0,*5D
1491408241.17,27785,15.13,73362.3,-1.47,-8.51,-11.59,0,*6D
1491408242.42,27786,15.13,73362.8,-1.47,-9.53,-13.43,0,*64
1491408243.67,27787,15.13,73364.8,-1.49,-10.09,-14.47,0,*5F
1491408244.9,27788,15.13,73362.5,-1.49,-10.27,-15.67,0,*5F
1491408246.15,27789,15.13,73364.3,-1.47,-10.85,-16.69,0,*55
1491408247.43,27790,15.13,73362.0,-1.49,-11.37,-17.45,0,*54
1491408248.7,27791,15.13,73360.0,-1.49,-11.67,-17.87,0,*5E
1491408249.99,27792,15.13,73358.8,-1.47,-11.67,-17.97,0,*52
1491408251.25,27793,15.13,73360.8,-1.49,-11.45,-17.41,0,*56
1491408252.49,27794,15.13,73358.8,-1.51,-10.89,-16.09,0,*54
1491408253.68,27795,15.13,73360.5,-1.51,-10.05,-14.19,0,*52
1491408254.94,27796,15.13,73358.5,-1.49,-9.05,-12.15,0,*6A
1491408256.18,27797,15.13,73360.0,-1.49,-7.95,-10.23,0,*6B
1491408257.42,27798,15.13,73360.0,-1.51,-7.31,-9.57,0,*58
1491408258.64,27799,15.13,73362.5,-1.49,-6.85,-8.75,0,*5F
1491408259.87,27800,15.13,73360.3,-1.49,-6.63,-8.25,0,*5D
1491408261.12,27801,15.13,73360.3,-1.49,-6.39,-7.39,0,*51
1491408262.34,27802,15.13,73360.8,-1.49,-6.09,-6.89,0,*5B
1491408263.61,27803,15.13,73360.5,-1.49,-5.69,-6.63,0,*5B
1491408264.86,27804,15.13,73358.0,-1.49,-5.51,-6.63,0,*57
1491408266.08,27805,15.13,73360.8,-1.49,-5.55,-6.77,0,*57
1491408267.31,27806,15.13,73362.0,-1.49,-5.51,-6.85,0,*5D
1491408268.53,27807,15.13,73358.5,-1.49,-5.51,-7.15,0,*54
1491408269.77,27808,15.13,73362.0,-1.47,-5.73,-8.97,0,*50
1491408271.0,27809,15.13,73362.8,-1.49,-6.51,-10.93,0,*61
1491408272.25,27810,15.13,73362.8,-1.49,-7.15,-11.77,0,*63
1491408273.53,27811,15.13,73358.0,-1.47,-7.91,-13.01,0,*63
1491408274.77,27812,15.13,73364.0,-1.49,-8.11,-13.07,0,*6F
1491408276.05,27813,15.13,73360.5,-1.47,-7.91,-12.07,0,*66
1491408277.34,27814,15.13,73362.8,-1.47,-7.57,-11.07,0,*68
1491408278.61,27815,15.13,73362.3,-1.49,-7.39,-11.33,0,*68
1491408279.85,27816,15.13,73360.8,-1.49,-7.91,-12.47,0,*69
1491408281.08,27817,15.13,73364.0,-1.47,-8.37,-13.51,0,*63
1491408282.31,27818,15.13,73360.3,-1.49,-8.71,-13.47,0,*67
1491408283.56,27819,15.13,73358.5,-1.47,-8.63,-12.61,0,*6E
1491408284.82,27820,15.13,73362.8,-1.47,-8.63,-12.61,0,*64
1491408286.08,27821,15.13,73360.3,-1.47,-8.59,-12.61,0,*6C
1491408287.33,27822,15.13,73360.3,-1.47,-8.51,-13.07,0,*66
1491408288.59,27823,15.13,73356.5,-1.49,-8.45,-12.75,0,*68
1491408289.84,27824,15.13,73362.0,-1.47,-8.25,-12.15,0,*61
1491408291.11,27825,15.13,73362.5,-1.49,-7.77,-11.37,0,*65
1491408292.4,27826,15.13,73358.8,-1.47,-7.57,-10.71,0,*69
1491408293.64,27827,15.13,73356.8,-1.47,-7.23,-10.15,0,*69
1491408294.86,27828,15.13,73356.5,-1.47,-6.85,-9.71,0,*51
1491408296.11,27829,15.13,73358.5,-1.47,-6.85,-9.57,0,*54
1491408297.34,27830,15.13,73360.8,-1.47,-6.59,-9.01,0,*5E
1491408298.59,27831,15.13,73358.8,-1.47,-6.09,-7.65,0,*56
1491408299.84,27832,15.13,73356.0,-1.47,-5.61,-6.85,0,*57
1491408301.1,27833,15.13,73358.0,-1.47,-5.31,-6.47,0,*5D
1491408302.32,27834,15.13,73358.5,-1.45,-5.23,-6.13,0,*5A
1491408303.52,27835,15.13,73356.3,-1.45,-4.57,-5.35,0,*5E
1491408304.76,27836,15.13,73358.3,-1.45,-4.21,-4.89,0,*5A
1491408306.0,27837,15.13,73356.8,-1.45,-4.01,-4.61,0,*5F
1491408307.2,27838,15.13,73358.0,-1.45,-3.79,-4.49,0,*52
1491408308.46,27839,15.13,73358.8,-1.43,-3.51,-4.29,0,*59
1491408309.68,27840,15.13,73360.5,-1.45,-3.55,-4.33,0,*5E
1491408310.93,27841,15.13,73362.0,-1.43,-3.43,-4.33,0,*5E
1491408312.16,27842,15.13,73358.5,-1.45,-3.55,-4.37,0,*58
1491408313.39,27843,15.13,73360.3,-1.45,-3.51,-4.37,0,*5D
1491408314.64,27844,15.13,73360.3,-1.43,-3.43,-4.41,0,*5E
1491408315.92,27845,15.13,73360.3,-1.43,-3.55,-4.69,0,*52
1491408317.19,27846,15.13,73362.0,-1.43,-3.55,-4.81,0,*57
1491408318.47,27847,15.13,73360.0,-1.43,-3.63,-4.93,0,*50
1491408319.75,27848,15.13,73364.3,-1.43,-3.67,-4.69,0,*5E
1491408320.97,27849,15.13,73358.8,-1.45,-3.67,-4.45,0,*57
1491408322.22,27850,15.13,73364.5,-1.43,-3.67,-4.33,0,*58
1491408323.47,27851,15.13,73362.0,-1.43,-3.67,-4.29,0,*52
1491408324.7,27852,15.13,73358.0,-1.45,-3.67,-4.25,0,*5B
1491408325.92,27853,15.13,73358.0,-1.45,-3.67,-3.95,0,*56
1491408327.12,27854,15.13,73358.5,-1.41,-3.39,-3.75,0,*50
1491408328.36,27855,15.13,73360.5,-1.43,-3.19,-3.51,0,*57
1491408329.61,27856,15.13,73360.3,-1.43,-3.19,-3.55,0,*50
1491408330.85,27857,15.13,73362.0,-1.43,-3.19,-3.63,0,*54
1491408332.06,27858,15.13,73364.3,-1.41,-3.19,-3.67,0,*5D
1491408333.3,27859,15.13,73362.0,-1.43,-3.15,-3.63,0,*56
1491408334.53,27860,15.13,73366.5,-1.43,-3.15,-3.79,0,*57
1491408335.76,27861,15.13,73362.8,-1.43,-3.19,-3.91,0,*5C
1491408336.98,27862,15.13,73362.5,-1.43,-3.27,-4.09,0,*54
1491408338.18,27863,15.13,73364.5,-1.41,-3.15,-4.09,0,*56
1491408339.38,27864,15.13,73364.3,-1.41,-3.19,-4.21,0,*57
1491408340.58,27865,15.13,73364.0,-1.41,-3.31,-4.29,0,*54
1491408341.77,27866,15.13,73366.8,-1.41,-3.39,-4.17,0,*52
1491408343.0,27867,15.13,73366.0,-1.39,-3.39,-4.13,0,*58
1491408344.22,27868,15.13,73364.5,-1.41,-3.55,-4.41,0,*55
1491408345.44,27869,15.13,73366.0,-1.41,-3.51,-4.33,0,*55
1491408346.67,27870,15.13,73366.8,-1.39,-3.35,-4.25,0,*57
1491408347.9,27871,15.13,73366.5,-1.39,-3.35,-4.25,0,*56
1491408349.14,27872,15.13,73364.0,-1.41,-3.67,-4.93,0,*50
1491408350.37,27873,15.13,73362.0,-1.41,-3.83,-5.11,0,*50
1491408351.62,27874,15.13,73360.8,-1.41,-3.63,-4.69,0,*57
1491408352.85,27875,15.13,73362.0,-1.41,-3.55,-4.53,0,*5A
1491408354.09,27876,15.13,73366.3,-1.39,-3.51,-4.45,0,*55
1491408355.32,27877,15.13,73362.5,-1.39,-3.35,-4.05,0,*52
1491408356.54,27878,15.13,73364.3,-1.39,-3.35,-4.05,0,*5D
1491408357.77,27879,15.13,73366.5,-1.39,-3.27,-3.91,0,*55
1491408359.02,27880,15.13,73362.8,-1.39,-3.39,-4.01,0,*52
1491408360.27,27881,15.13,73364.0,-1.39,-3.51,-4.13,0,*5E
1491408361.54,27882,15.13,73362.0,-1.39,-3.51,-4.01,0,*5E
1491408362.77,27883,15.13,73362.5,-1.39,-3.35,-3.75,0,*59
1491408364.01,27884,15.13,73366.0,-1.35,-3.31,-3.67,0,*55
1491408365.25,27885,15.13,73364.0,-1.35,-3.31,-3.55,0,*55
1491408366.48,27886,15.13,73360.5,-1.35,-3.23,-3.47,0,*56
1491408367.7,27887,15.13,73364.0,-1.35,-3.11,-3.35,0,*53
1491408368.94,27888,15.13,73364.3,-1.35,-3.19,-3.47,0,*51
1491408370.17,27889,15.13,73362.8,-1.31,-3.19,-3.55,0,*57
1491408371.39,27890,15.13,73364.0,-1.35,-3.19,-3.31,0,*59
1491408372.61,27891,15.13,73366.0,-1.35,-3.11,-3.35,0,*54
1491408373.83,27892,15.13,73362.8,-1.31,-3.23,-3.35,0,*52
1491408375.06,27893,15.13,73364.3,-1.31,-3.35,-3.55,0,*52
1491408376.3,27894,15.13,73364.3,-1.35,-3.31,-3.55,0,*55
1491408377.52,27895,15.13,73364.8,-1.31,-3.19,-3.31,0,*58
1491408378.73,27896,15.13,73364.3,-1.31,-3.11,-3.31,0,*53
1491408379.95,27897,15.13,73360.8,-1.31,-3.11,-3.35,0,*56
1491408381.17,27898,15.13,73366.5,-1.31,-3.23,-3.35,0,*58
1491408382.38,27899,15.13,73364.0,-1.31,-3.19,-3.31,0,*54
1491408383.6,27900,15.13,73364.5,-1.35,-3.11,-3.35,0,*5D
1491408384.81,27901,15.13,73366.0,-1.31,-3.11,-3.23,0,*5F
1491408386.02,27902,15.13,73366.3,-1.31,-3.11,-3.23,0,*5C
1491408387.26,27903,15.13,73364.3,-1.31,-3.23,-3.43,0,*5A
1491408388.47,27904,15.13,73370.5,-1.31,-3.19,-3.35,0,*55
1491408389.71,27905,15.13,73368.3,-1.31,-3.19,-3.55,0,*52
1491408390.95,27906,15.13,73364.8,-1.31,-3.31,-3.67,0,*5A
1491408392.18,27907,15.13,73364.8,-1.29,-3.43,-3.67,0,*57
1491408393.4,27908,15.13,73360.0,-1.29,-3.43,-3.83,0,*52
1491408394.62,27909,15.13,73362.3,-1.29,-3.27,-3.67,0,*5B
1491408395.86,27910,15.13,73364.3,-1.31,-3.43,-3.75,0,*5B
1491408397.1,27911,15.13,73362.0,-1.31,-3.31,-3.67,0,*5C
1491408398.31,27912,15.13,73364.5,-1.29,-3.27,-3.55,0,*50
1491408399.56,27913,15.13,73360.8,-1.31,-3.19,-3.59,0,*59
1491408400.8,27914,15.13,73362.5,-1.31,-3.23,-3.59,0,*57
1491408402.04,27915,15.13,73364.3,-1.31,-3.31,-3.59,0,*55
1491408403.25,27916,15.13,73364.0,-1.29,-3.27,-3.55,0,*54
1491408404.47,27917,15.13,73364.8,-1.29,-3.27,-3.51,0,*51
1491408405.69,27918,15.13,73362.8,-1.29,-3.39,-3.63,0,*50
1491408406.9,27919,15.13,73366.3,-1.29,-3.27,-3.51,0,*5F
1491408408.12,27920,15.13,73364.8,-1.29,-3.27,-3.51,0,*55
1491408409.34,27921,15.13,73364.3,-1.29,-3.27,-3.63,0,*55
1491408410.55,27922,15.13,73364.5,-1.29,-3.31,-3.63,0,*51
1491408411.77,27923,15.13,73364.3,-1.29,-3.31,-3.67,0,*54
1491408413.01,27924,15.13,73362.0,-1.27,-3.39,-3.67,0,*55
1491408414.22,27925,15.13,73366.5,-1.29,-3.39,-3.71,0,*5D
1491408415.44,27926,15.13,73360.8,-1.29,-3.31,-3.71,0,*56
1491408416.65,27927,15.13,73366.3,-1.29,-3.27,-3.71,0,*50
1491408417.89,27928,15.13,73362.0,-1.27,-3.27,-3.63,0,*52
1491408419.11,27929,15.13,73366.0,-1.29,-3.27,-3.63,0,*5D
1491408420.32,27930,15.13,73366.3,-1.29,-3.31,-3.67,0,*56
1491408421.57,27931,15.13,73366.5,-1.27,-3.43,-3.79,0,*53
1491408422.81,27932,15.13,73366.3,-1.27,-3.55,-3.83,0,*52
1491408424.06,27933,15.13,73366.8,-1.27,-3.55,-4.05,0,*5A
1491408425.3,27934,15.13,73366.3,-1.27,-3.63,-4.09,0,*54
1491408426.53,27935,15.13,73364.8,-1.27,-3.79,-4.09,0,*5E
1491408427.78,27936,15.13,73366.3,-1.27,-3.63,-3.95,0,*54
1491408429.02,27937,15.13,73366.5,-1.27,-3.55,-4.05,0,*5E
1491408430.26,27938,15.13,73366.0,-1.27,-3.71,-4.17,0,*54
1491408431.51,27939,15.13,73366.0,-1.27,-3.71,-4.09,0,*5A
1491408432.75,27940,15.13,73368.3,-1.27,-3.67,-4.05,0,*5F
1491408434.0,27941,15.13,73368.5,-1.27,-3.67,-4.09,0,*52
1491408435.21,27942,15.13,73366.8,-1.25,-3.67,-4.17,0,*5C
1491408436.43,27943,15.13,73362.0,-1.25,-3.63,-4.13,0,*5D
1491408437.65,27944,15.13,73364.0,-1.25,-3.67,-4.05,0,*59
1491408438.86,27945,15.13,73366.8,-1.25,-3.67,-4.13,0,*5F
1491408440.11,27946,15.13,73370.3,-1.25,-3.67,-4.01,0,*5F
1491408441.33,27947,15.13,73360.5,-1.27,-3.83,-4.09,0,*5E
1491408442.56,27948,15.13,73364.3,-1.27,-3.91,-4.17,0,*5D
1491408443.78,27949,15.13,73360.5,-1.25,-4.01,-4.57,0,*54
1491408445.01,27950,15.13,73362.0,-1.25,-4.25,-5.19,0,*51
1491408446.25,27951,15.13,73368.5,-1.27,-4.45,-5.85,0,*51
1491408447.47,27952,15.13,73364.8,-1.27,-4.53,-6.31,0,*59
1491408448.73,27953,15.13,73366.8,-1.27,-4.93,-6.93,0,*5C
1491408449.95,27954,15.13,73366.3,-1.25,-5.43,-7.77,0,*5E
1491408451.16,27955,15.13,73362.5,-1.25,-5.81,-8.33,0,*5E
1491408452.4,27956,15.13,73366.0,-1.27,-5.73,-8.29,0,*59
1491408453.64,27957,15.13,73362.5,-1.27,-5.65,-8.25,0,*53
1491408454.89,27958,15.13,73360.3,-1.27,-5.77,-7.83,0,*5C
1491408456.15,27959,15.13,73364.0,-1.27,-5.73,-7.99,0,*52
1491408457.42,27960,15.13,73362.5,-1.27,-5.73,-8.51,0,*53
1491408458.7,27961,15.13,73364.0,-1.27,-5.85,-9.11,0,*5E
1491408459.91,27962,15.13,73366.3,-1.25,-6.13,-9.15,0,*57
1491408461.13,27963,15.13,73364.0,-1.25,-6.39,-9.53,0,*5C
1491408462.34,27964,15.13,73364.0,-1.25,-6.63,-10.09,0,*63
1491408463.57,27965,15.13,73368.8,-1.25,-6.97,-10.15,0,*64
1491408464.81,27966,15.13,73366.0,-1.25,-7.19,-10.67,0,*65
1491408466.03,27967,15.13,73360.8,-1.25,-7.53,-10.79,0,*65
1491408467.28,27968,15.13,73364.8,-1.27,-7.61,-10.89,0,*66
1491408468.49,27969,15.13,73366.3,-1.25,-7.87,-10.97,0,*62
1491408469.71,27970,15.13,73364.8,-1.25,-7.87,-10.71,0,*62
1491408470.9,27971,15.13,73364.5,-1.25,-7.87,-10.45,0,*64
1491408472.13,27972,15.13,73366.5,-1.25,-7.69,-10.23,0,*67
1491408473.32,27973,15.13,73362.8,-1.25,-7.53,-9.97,0,*58
1491408474.53,27974,15.13,73366.0,-1.25,-7.43,-9.97,0,*5E
1491408475.76,27975,15.13,73366.3,-1.25,-7.57,-10.01,0,*6D
1491408477.01,27976,15.13,73364.8,-1.23,-7.53,-9.83,0,*5E
1491408478.23,27977,15.13,73364.5,-1.25,-7.19,-9.57,0,*5E
1491408479.42,27978,15.13,73370.3,-1.25,-7.15,-9.89,0,*5E
1491408480.63,27979,15.13,73364.5,-1.25,-7.31,-9.89,0,*59
1491408481.82,27980,15.13,73364.0,-1.25,-7.19,-9.31,0,*56
1491408483.06,27981,15.13,73366.0,-1.23,-6.97,-8.75,0,*57
1491408484.25,27982,15.13,73364.8,-1.25,-6.59,-8.33,0,*52
1491408485.46,27983,15.13,73366.0,-1.25,-6.59,-7.95,0,*50
1491408486.68,27984,15.13,73366.8,-1.25,-6.47,-7.65,0,*57
1491408487.89,27985,15.13,73366.8,-1.25,-6.39,-7.39,0,*56
1491408489.16,27986,15.13,73364.0,-1.23,-6.63,-7.57,0,*54
1491408490.38,27987,15.13,73366.0,-1.25,-6.77,-7.65,0,*57
1491408491.6,27988,15.13,73364.3,-1.25,-6.77,-7.77,0,*5B
1491408492.82,27989,15.13,73366.8,-1.25,-6.85,-7.99,0,*57
1491408494.04,27990,15.13,73366.0,-1.25,-6.97,-8.89,0,*52
1491408495.29,27991,15.13,73370.3,-1.25,-7.65,-10.67,0,*66
1491408496.51,27992,15.13,73368.3,-1.25,-8.37,-11.81,0,*64
1491408497.78,27993,15.13,73364.0,-1.27,-8.81,-11.85,0,*6E
1491408499.04,27994,15.13,73364.0,-1.27,-8.93,-11.73,0,*63
1491408500.3,27995,15.13,73362.3,-1.27,-8.93,-11.37,0,*62
1491408501.53,27996,15.13,73366.5,-1.27,-8.93,-10.45,0,*65
1491408502.75,27997,15.13,73362.3,-1.27,-8.29,-9.75,0,*5E
1491408503.99,27998,15.13,73366.0,-1.27,-7.91,-9.23,0,*5E
1491408505.26,27999,15.13,73364.8,-1.27,-7.61,-9.61,0,*56
1491408506.48,28000,15.13,73364.8,-1.25,-7.69,-9.89,0,*5C
1491408507.72,28001,15.13,73364.3,-1.25,-7.65,-9.61,0,*57